Location: Unnamed
(33.0780°N, 97.0417°W)
Time: 19:55:31
(UTC-05:00)

X-37B - Visible Passes

Search period start: 30 July 2021 00:00
Search period end: 09 August 2021 00:00
Orbit: 383 x 392 km, 45.0° (Epoch: 01 July)

Date Brightness Start Highest point End Pass type
(mag) Time Alt. Az. Time Alt. Az. Time Alt. Az.
30 Jul 1.0 04:59:37 48° SSE 04:59:42 49° SE 05:02:49 10° ENE visible
31 Jul 3.8 04:03:53 11° E 04:03:53 11° E 04:04:02 10° E visible
31 Jul 1.7 05:36:10 19° W 05:37:58 36° NNW 05:40:59 10° NE visible
01 Aug 1.6 04:40:22 45° NE 04:40:22 45° NE 04:42:45 10° NE visible
02 Aug 2.5 05:16:49 18° NW 05:18:00 22° NNW 05:20:35 10° NNE visible
03 Aug 3.0 04:20:57 23° NNE 04:20:57 23° NNE 04:22:29 10° NE visible
03 Aug 3.4 05:55:33 10° NW 05:56:48 12° N 05:58:02 10° NNE visible
04 Aug 3.1 04:57:21 14° NW 04:58:08 15° NNW 05:00:06 10° NNE visible
05 Aug 3.9 04:01:28 13° NNE 04:01:28 13° NNE 04:02:06 10° NNE visible
05 Aug 3.7 05:36:52 10° N 05:37:02 10° N 05:37:12 10° N visible
06 Aug 3.5 04:37:52 11° NNW 04:38:19 12° N 04:39:32 10° NNE visible
06 Aug 3.7 06:15:08 10° N 06:16:01 11° N 06:16:53 10° NNE visible
08 Aug 3.6 05:54:32 10° NNW 05:56:14 13° NNE 05:57:55 10° NE visible
